OBJECT K, 57175

Orbit data source: Space-Track

You're viewing an Uncataloged Satellite

Recently launched and/or uncataloged satellites may have evolving metadata. Metadata may include but not limited to: Owner, Maufacturer, Bus, Motor, and Mission.

OBJECT K, 57175 is a satellite in SSO that was launched on Tue, 27 Jun 2023 UTC via a SOYUZ-2-1B launch vehicle from the Vostochny Cosmodrome (VOSTO). Unknown objects in Earth's orbit typically refer to objects detected orbiting the Earth but have not yet been identified or cataloged. These objects could be anything from previously untracked satellites, spent rocket stages, debris from satellite collisions, or even natural meteoroids temporarily captured by Earth's gravity.

Loading next visibility...
Identifier
57175, 2023-091K
Orbit
SSO
Country
Flag of TBDTBD
Related business
Flag of BYBelarusian State University (BY)
Manufacturer
Belarus SU
Mission
Operational Amateur Communications
Bus & Motor
CUBESAT 3U, Unknown motor
Mass
4 kg wet, 4 kg dry
Launch date (UTC)
2023-06-27 (2 years ago)
Launch vehicle
SOYUZ-2-1B
Launch site
Vostochny Cosmodrome (VOSTO)
Object type
Unknown
Shape & HBR
Box, 0.1 m
Radar Cross Section
0.035 m², Small (<0.1 m²)

Expand to show TLE details & history
Last TLE update: 12 hours ago

TLE from 12 hours ago
0 OBJECT K
1 57175U 23091K   25304.81051336  .00015318  00000-0  66140-3 0  9999
2 57175  97.5406   1.6019 0011060 191.4182 168.6805 15.22546700129478
Epoch: 2025-10-31T19:27Z
TLE epoch observation values (Epoch: 2025-10-31T19:27:08.354Z)
Latitude
-0°
Longitude
29.46749°
Altitude
508.711 km
Speed
7.606 km/s
True Right ascension
00h 06m 24s
True Declination
0° 00' 00"
Sunlit
Object was in full shadow at epoch
Visualization orbit readout
Latitude
Unknown
Longitude
Unknown
Altitude
Unknown
Speed
Unknown
Apparent Right ascension
Unknown
Apparent Declination
Unknown
Sunlit
N/A
Visualization observer readout
Local Sidereal Time
02:51:23
Azimuth
Unknown
Elevation
Unknown
Doppler factor
Unknown
Orbital elements
Apogee altitude
502.732 km
Perigee altitude
487.529 km
Semi-major axis
6,873.267 km
Eccentricity
0.00111
Inclination
97.5406°
RAAN
1.6019°
Arg. of periapsis
191.4182°
True anomaly
168.70534°
Mean anomaly
168.6805°
Eccentric anomaly
168.69292°
Mean motion
3.80889 °/min
Orbital period
94.52 mins
BSTAR
0.0006614
Loading maneuver chart data...
Computing Atmospheric mass density...
Loading historical data...
Loading historical data...
Loading historical data...
Loading historical data...
Loading historical data...
Loading historical data...
Loading historical data...

Documentation

Showing up to 5 results
|